SCP
0 0 0 0 0 0 -0 -0 -0 -0 -1 -1 -0 -0 -0 -0 -0 -0 0 -0 0 -0 0 0 0 0 0 0 0 0 0 0 -0
0 0 0 0 0 -0 -0 -0 -0 -0 -1 -0 -0 -0 -0 -0 -0 0 0 0 0 -0 0 1 0 0 0 0 0 0 0 0 0
0 0 -0 0 -0 -0 -0 -0 -0 -0 -0 -0 -0 -0 -0 -0 -0 0 0 -0 0 -0 0 0 0 0 0 0 0 0 0 -0 0
0 0 0 0 0 -0 0 -0 -0 -0 -0 -0 -0 0 -0 -0 -0 -0 0 0 -0 0 0 -0 0 0 0 0 0 0 0 -0 0
0 0 0 0 0 0 -0 0 -0 -0 -0 -0 -0 -0 0 0 -0 -0 -0 0 -0 0 0 0 0 0 0 0 0 0 0 0 0
0 0 0 0 0 0 0 0 0 -0 -0 -0 -0 -0 0 0 0 0 0 0 0 0 0 0 0 0 0 0 0 0 0 0 0
0 0 0 1 0 0 0 0 -0 0 -0 -0 0 0 0 0 0 0 0 0 0 0 0 0 0 0 0 0 0 0 0 0 0
0 0 0 0 0 0 1 0 0 0 -0 -0 -0 0 0 1 1 0 0 0 0 0 0 0 0 0 0 0 0 0 0 0 0
1 0 0 1 1 0 0 0 0 0 0 0 -0 -0 0 1 1 1 0 0 1 0 0 0 0 0 0 0 0 0 0 0 0
0 0 0 1 1 1 0 0 0 0 0 0 0 0 0 -0 1 1 1 1 1 1 0 0 0 0 0 0 0 0 0 0 0
1 1 1 1 1 1 1 0 0 0 0 0 0 0 0 0 0 1 1 1 1 1 1 0 1 0 0 0 0 0 0 0 0
0 0 1 1 1 1 1 1 1 1 0 0 0 0 -0 0 -0 1 1 1 1 1 1 1 1 0 1 1 1 0 0 0 0
0 0 0 1 1 1 1 1 2 1 0 1 1 0 0 1 1 1 2 2 2 1 1 1 1 1 0 1 0 0 0 0 -0
0 0 0 0 1 1 1 2 1 1 1 1 1 1 1 1 1 1 1 2 1 2 1 1 0 1 0 1 0 0 0 -0 -0
0 0 1 0 0 1 1 2 2 2 2 2 2 1 1 1 1 1 0 1 2 3 2 1 1 0 0 0 -0 -0 -0 -0 -0
0 0 0 0 0 1 1 1 2 2 3 2 2 1 1 1 1 1 1 0 0 0 1 1 1 0 -0 -0 -0 -0 -0 0 -0
0 0 0 0 0 1 1 1 2 3 2 2 2 2 2 2 1 1 0 0 0 0 0 0 0 0 -0 -0 -0 0 0 0 0
0 0 0 0 0 1 1 1 1 2 3 3 3 2 2 2 1 1 0 0 0 0 0 -0 -0 0 -0 -0 -0 0 0 0 0
0 0 0 0 0 0 1 1 2 2 2 3 1 1 1 2 1 1 1 0 0 0 0 0 0 0 0 0 0 0 0 0 0
0 0 0 0 0 0 0 1 0 0 0 0 1 1 1 1 0 1 1 0 0 0 0 0 0 0 0 0 0 0 0 0 0
Wind_Speed_500mb
11 19 28 37 41 44 46 47 48 47 47 42 38 33 28 24 28 31 34 43 38 36 34 32 33 27 30 25 20 16 16 12 14
11 15 25 34 38 42 45 51 50 49 46 42 39 36 31 27 29 32 33 38 42 37 32 33 27 26 27 29 23 18 11 8 9
13 8 17 29 37 39 43 48 50 47 45 44 42 37 32 29 28 31 33 44 37 38 35 42 33 28 28 26 23 23 18 17 16
26 22 8 22 31 36 41 45 50 48 47 43 42 40 35 34 33 33 35 36 43 34 33 33 26 32 33 30 25 23 22 25 12
29 26 11 13 26 35 41 44 49 50 49 45 42 40 40 37 37 37 34 32 37 37 36 32 33 32 32 33 31 29 30 28 26
27 28 23 7 16 30 38 43 48 51 51 47 45 45 42 39 40 41 40 39 36 38 38 37 34 35 35 32 30 29 30 28 26
27 24 24 15 12 23 32 39 45 51 52 51 49 47 47 46 44 44 41 41 43 40 42 40 37 38 40 33 28 29 28 27 28
25 24 24 20 16 18 29 35 41 47 51 55 52 55 51 57 47 45 45 47 45 43 39 34 34 39 37 32 31 32 31 30 28
26 24 23 24 18 17 26 33 39 43 52 55 55 60 56 51 51 48 48 51 49 45 40 40 34 34 35 34 33 38 41 36 26
21 25 27 27 25 21 24 31 36 45 49 53 57 61 60 57 54 51 50 52 50 45 45 42 40 35 39 37 38 42 45 43 39
20 25 29 31 28 26 24 26 35 41 48 55 59 61 62 60 56 51 49 49 51 49 44 44 41 39 37 35 34 40 38 36 34
21 28 31 32 33 32 33 28 25 37 46 52 58 60 64 65 61 54 49 46 45 45 45 43 42 37 41 40 38 37 39 38 36
27 31 31 35 39 32 28 24 28 34 44 52 60 59 61 63 63 57 52 46 42 42 44 42 40 38 34 29 25 29 30 31 31
32 34 37 35 37 35 31 25 25 36 41 52 52 51 53 59 62 60 56 47 49 45 43 38 35 35 33 41 43 36 34 33 22
39 37 39 35 36 36 34 30 26 37 43 42 48 51 55 56 59 59 52 62 59 53 40 38 35 29 27 23 30 33 32 29 23
42 38 38 40 36 40 37 32 24 34 42 42 45 52 55 59 59 57 58 63 64 61 55 52 40 31 28 23 32 24 26 26 23
44 40 40 40 38 38 39 35 32 26 40 45 50 57 59 61 66 63 54 51 58 58 47 59 60 50 35 28 32 24 25 21 23
45 43 37 37 37 36 39 37 36 38 40 50 59 61 65 66 59 59 51 50 48 55 56 43 41 46 35 31 30 26 25 19 12
44 44 37 38 36 34 34 34 38 32 34 42 54 59 61 60 54 56 50 46 48 52 42 45 43 38 37 36 33 30 32 32 28
42 40 39 39 35 31 30 29 36 35 44 34 40 55 63 65 64 55 50 47 40 44 49 43 46 46 35 32 36 37 30 29 28
Wind_Direction_500mb
144 179 183 191 197 199 196 200 197 198 197 198 201 207 209 210 209 196 189 178 170 181 185 186 207 203 186 187 188 173 192 170 161
157 196 190 195 195 199 197 198 199 198 198 197 198 200 203 202 203 198 191 178 173 183 185 191 193 192 183 185 188 192 220 216 239
18 203 216 200 200 200 199 199 200 199 199 198 195 191 197 196 198 197 192 176 177 184 190 195 189 186 185 195 204 214 202 201 249
24 347 226 224 211 203 201 201 200 201 199 198 193 190 192 193 191 194 191 186 185 187 191 207 173 184 193 202 213 220 225 203 231
12 7 319 260 218 209 205 204 203 202 200 198 200 196 197 193 191 190 197 193 192 192 197 203 204 201 199 207 215 225 229 235 229
5 4 2 293 251 214 210 207 205 203 203 204 201 198 199 195 194 192 191 195 195 197 199 207 203 212 210 205 215 223 230 233 243
353 356 357 344 259 225 217 213 209 205 203 204 198 197 199 198 197 196 192 196 195 200 205 207 200 208 213 208 211 222 232 241 245
345 350 349 346 319 265 216 215 214 211 206 204 203 200 199 201 202 198 194 197 199 197 206 205 208 205 216 213 217 228 238 233 243
340 343 343 340 336 301 253 221 218 216 211 207 204 206 202 204 207 203 204 196 202 200 206 207 210 214 217 221 222 231 238 238 234
337 341 342 336 336 323 281 237 225 219 216 209 207 205 203 204 208 203 205 201 204 207 207 215 213 221 223 223 227 234 240 242 245
329 335 339 338 330 324 301 258 236 224 218 212 210 205 205 202 205 203 206 205 204 209 212 216 223 222 230 227 236 245 249 244 257
327 326 331 332 326 317 316 288 256 222 214 212 207 208 206 203 203 197 199 203 207 210 212 215 221 228 232 237 236 249 242 245 259
321 320 321 325 327 321 316 299 252 222 213 210 207 206 207 204 203 200 198 199 205 209 213 215 213 221 230 237 225 224 224 252 252
313 312 317 317 320 321 315 308 256 233 218 214 211 207 207 207 206 200 201 202 207 205 207 211 220 221 225 237 252 247 250 251 232
308 305 308 313 311 312 312 298 273 237 223 216 212 207 204 203 204 203 200 209 209 197 202 200 215 229 237 243 243 247 244 243 250
296 296 298 302 300 304 313 301 273 248 230 216 212 206 201 198 196 187 204 205 214 217 228 211 213 225 232 232 247 261 259 247 246
285 289 290 294 292 297 303 302 284 244 235 220 212 205 197 194 191 193 200 212 209 211 211 212 230 231 227 227 238 221 256 256 232
275 278 281 289 286 291 297 304 297 258 233 222 213 201 190 188 190 191 199 190 199 216 223 225 217 224 226 219 228 227 222 217 220
272 271 276 285 281 284 293 300 300 286 237 231 217 207 194 193 198 194 198 198 210 215 207 214 213 209 210 223 224 219 215 226 246
267 271 272 282 282 275 284 285 301 291 243 215 222 211 200 198 199 197 202 200 207 207 203 216 208 208 212 211 221 232 238 245 254
Wind_Speed_850mb
11 19 28 37 41 44 46 47 48 47 47 42 38 33 28 24 28 31 34 43 38 36 34 32 33 27 30 25 20 16 16 12 14
11 15 25 34 38 42 45 51 50 49 46 42 39 36 31 27 29 32 33 38 42 37 32 33 27 26 27 29 23 18 11 8 9
13 8 17 29 37 39 43 48 50 47 45 44 42 37 32 29 28 31 33 44 37 38 35 42 33 28 28 26 23 23 18 17 16
26 22 8 22 31 36 41 45 50 48 47 43 42 40 35 34 33 33 35 36 43 34 33 33 26 32 33 30 25 23 22 25 12
29 26 11 13 26 35 41 44 49 50 49 45 42 40 40 37 37 37 34 32 37 37 36 32 33 32 32 33 31 29 30 28 26
27 28 23 7 16 30 38 43 48 51 51 47 45 45 42 39 40 41 40 39 36 38 38 37 34 35 35 32 30 29 30 28 26
27 24 24 15 12 23 32 39 45 51 52 51 49 47 47 46 44 44 41 41 43 40 42 40 37 38 40 33 28 29 28 27 28
25 24 24 20 16 18 29 35 41 47 51 55 52 55 51 57 47 45 45 47 45 43 39 34 34 39 37 32 31 32 31 30 28
26 24 23 24 18 17 26 33 39 43 52 55 55 60 56 51 51 48 48 51 49 45 40 40 34 34 35 34 33 38 41 36 26
21 25 27 27 25 21 24 31 36 45 49 53 57 61 60 57 54 51 50 52 50 45 45 42 40 35 39 37 38 42 45 43 39
20 25 29 31 28 26 24 26 35 41 48 55 59 61 62 60 56 51 49 49 51 49 44 44 41 39 37 35 34 40 38 36 34
21 28 31 32 33 32 33 28 25 37 46 52 58 60 64 65 61 54 49 46 45 45 45 43 42 37 41 40 38 37 39 38 36
27 31 31 35 39 32 28 24 28 34 44 52 60 59 61 63 63 57 52 46 42 42 44 42 40 38 34 29 25 29 30 31 31
32 34 37 35 37 35 31 25 25 36 41 52 52 51 53 59 62 60 56 47 49 45 43 38 35 35 33 41 43 36 34 33 22
39 37 39 35 36 36 34 30 26 37 43 42 48 51 55 56 59 59 52 62 59 53 40 38 35 29 27 23 30 33 32 29 23
42 38 38 40 36 40 37 32 24 34 42 42 45 52 55 59 59 57 58 63 64 61 55 52 40 31 28 23 32 24 26 26 23
44 40 40 40 38 38 39 35 32 26 40 45 50 57 59 61 66 63 54 51 58 58 47 59 60 50 35 28 32 24 25 21 23
45 43 37 37 37 36 39 37 36 38 40 50 59 61 65 66 59 59 51 50 48 55 56 43 41 46 35 31 30 26 25 19 12
44 44 37 38 36 34 34 34 38 32 34 42 54 59 61 60 54 56 50 46 48 52 42 45 43 38 37 36 33 30 32 32 28
42 40 39 39 35 31 30 29 36 35 44 34 40 55 63 65 64 55 50 47 40 44 49 43 46 46 35 32 36 37 30 29 28
Wind_Direction_850mb
144 179 183 191 197 199 196 200 197 198 197 198 201 207 209 210 209 196 189 178 170 181 185 186 207 203 186 187 188 173 192 170 161
157 196 190 195 195 199 197 198 199 198 198 197 198 200 203 202 203 198 191 178 173 183 185 191 193 192 183 185 188 192 220 216 239
18 203 216 200 200 200 199 199 200 199 199 198 195 191 197 196 198 197 192 176 177 184 190 195 189 186 185 195 204 214 202 201 249
24 347 226 224 211 203 201 201 200 201 199 198 193 190 192 193 191 194 191 186 185 187 191 207 173 184 193 202 213 220 225 203 231
12 7 319 260 218 209 205 204 203 202 200 198 200 196 197 193 191 190 197 193 192 192 197 203 204 201 199 207 215 225 229 235 229
5 4 2 293 251 214 210 207 205 203 203 204 201 198 199 195 194 192 191 195 195 197 199 207 203 212 210 205 215 223 230 233 243
353 356 357 344 259 225 217 213 209 205 203 204 198 197 199 198 197 196 192 196 195 200 205 207 200 208 213 208 211 222 232 241 245
345 350 349 346 319 265 216 215 214 211 206 204 203 200 199 201 202 198 194 197 199 197 206 205 208 205 216 213 217 228 238 233 243
340 343 343 340 336 301 253 221 218 216 211 207 204 206 202 204 207 203 204 196 202 200 206 207 210 214 217 221 222 231 238 238 234
337 341 342 336 336 323 281 237 225 219 216 209 207 205 203 204 208 203 205 201 204 207 207 215 213 221 223 223 227 234 240 242 245
329 335 339 338 330 324 301 258 236 224 218 212 210 205 205 202 205 203 206 205 204 209 212 216 223 222 230 227 236 245 249 244 257
327 326 331 332 326 317 316 288 256 222 214 212 207 208 206 203 203 197 199 203 207 210 212 215 221 228 232 237 236 249 242 245 259
321 320 321 325 327 321 316 299 252 222 213 210 207 206 207 204 203 200 198 199 205 209 213 215 213 221 230 237 225 224 224 252 252
313 312 317 317 320 321 315 308 256 233 218 214 211 207 207 207 206 200 201 202 207 205 207 211 220 221 225 237 252 247 250 251 232
308 305 308 313 311 312 312 298 273 237 223 216 212 207 204 203 204 203 200 209 209 197 202 200 215 229 237 243 243 247 244 243 250
296 296 298 302 300 304 313 301 273 248 230 216 212 206 201 198 196 187 204 205 214 217 228 211 213 225 232 232 247 261 259 247 246
285 289 290 294 292 297 303 302 284 244 235 220 212 205 197 194 191 193 200 212 209 211 211 212 230 231 227 227 238 221 256 256 232
275 278 281 289 286 291 297 304 297 258 233 222 213 201 190 188 190 191 199 190 199 216 223 225 217 224 226 219 228 227 222 217 220
272 271 276 285 281 284 293 300 300 286 237 231 217 207 194 193 198 194 198 198 210 215 207 214 213 209 210 223 224 219 215 226 246
267 271 272 282 282 275 284 285 301 291 243 215 222 211 200 198 199 197 202 200 207 207 203 216 208 208 212 211 221 232 238 245 254